Location: Colorado Springs
(38.8340°N, 104.8210°W)
Time: 15:38:32
(UTC-07:00)

Vanguard 2 - Visible Passes

Search period start: 16 December 2017 00:00
Search period end: 26 December 2017 00:00
Orbit: 553 x 2939 km, 32.9° (Epoch: 15 December)

Date Brightness Start Highest point End Pass type
(mag) Time Alt. Az. Time Alt. Az. Time Alt. Az.
16 Dec 8.6 17:02:48 10° W 17:08:50 43° S 17:13:03 10° ESE visible
16 Dec 9.3 19:13:27 10° WSW 19:16:22 17° SSW 19:16:36 17° SSW visible
17 Dec 8.7 17:21:02 10° W 17:26:47 38° SSW 17:30:52 10° SE visible
17 Dec 9.8 19:32:49 10° SW 19:34:04 11° SSW 19:34:04 11° SSW visible
18 Dec 9.1 17:39:19 10° W 17:44:39 32° SSW 17:48:34 10° SE visible
19 Dec 9.5 17:57:45 10° W 18:02:27 24° SSW 18:06:03 10° SSE visible
20 Dec 9.7 18:16:27 10° WSW 18:20:09 18° SSW 18:23:11 10° S visible
21 Dec 10.1 18:35:55 10° WSW 18:37:47 12° SW 18:39:29 10° SSW visible
24 Dec 10.2 17:18:28 10° W 17:23:44 20° SW 17:27:39 10° S visible
25 Dec 10.5 17:37:48 10° WSW 17:41:15 14° SW 17:44:05 10° SSW visible
